Torna al catalogo

STARLINK-4684

AttivoComunicazioniVLEO
NORAD 53595·PAYLOAD·🇺🇸 United States

Lanciato Aug 28, 2022 da Cape Canaveral Space Force Station

Loading…

Prossimi Passaggi (prossime 24 ore)

TLE

AggiornatoSource: CelesTrak SupGP

Epoca: Sep 14, 2026, 22:00 UTC

1 53595C 22104H   26257.91715278  .00011135  00000+0  35816-3 0  2571
2 53595  53.1580 101.7956 0001350  84.5539   6.4666 15.31687425    14

Traccia STARLINK-4684 in tempo reale con AllMySat

Download on the App Store